sat.trackr.live / text

‹ back to catalog

STARLINK-4117

NORAD 53169 · 2022-083AP

PAYLOAD ACTIVE UNKNOWN

§ Identity

Operator
Country
US
Launch date
2022-07-17
Launch site
AFETR
Launch vehicle
Mass (kg)
RCS (m²)

Purposes: comms

External: N2YO · Heavens-Above · Gunter

§ Orbital elements

Epoch: 2026-05-25T01:22:32.491200Z

Period
95.44 min
Inclination
53.2139°
Eccentricity
0.0001043
Mean motion
15.08839464 rev/d
Perigee alt
539.0 km
Apogee alt
540.5 km
Semi-major
6,917.9 km
B*
1.8847e-5
RAAN
166.5523°
Arg perigee
75.2152°
Mean anomaly
284.8955°
Rev number
21,308

§ Raw data

STARLINK-41171 53169U 22083AP  26145.05732050  .00000012  00000+0  18847-4 0  99932 53169  53.2139 166.5523 0001043  75.2152 284.8955 15.08839464213080

JSON: /api/v1/satellites/53169 · /tle

For live sub-satellite position, see the globe view (requires WebGL).

§ Visibility from observer

Set your observer location to see the next 7 days of passes ≥ 10°. The values pass through the URL so the page stays shareable.

No JS? Fill the form by hand. The geolocation button needs JavaScript.